| time (UTC) | temp F | wind direction | speed MPH | gust MPH | rain 1hr in | rain 24hr in | rain mn in | humidity % | barometer mb |
| 20260906204519 | 68 | 270 | 7.0 | 14.0 | 0.00 | 0.00 | 0.00 | 45 | 1013.2 |
| 20260906203539 | 68 | 225 | 6.0 | 12.0 | 0.00 | 0.00 | 0.00 | 46 | 1013.3 |
| 20260906202520 | 68 | 248 | 6.0 | 10.0 | 0.00 | 0.00 | 0.00 | 45 | 1013.4 |
| 20260906201519 | 68 | 270 | 4.0 | 9.0 | 0.00 | 0.00 | 0.00 | 43 | 1013.4 |
| 20260906200520 | 68 | 293 | 4.0 | 10.0 | 0.00 | 0.00 | 0.00 | 40 | 1013.4 |
| 20260906195520 | 69 | 315 | 5.0 | 10.0 | 0.00 | 0.00 | 0.00 | 40 | 1013.4 |
| 20260906194519 | 67 | 293 | 5.0 | 12.0 | 0.00 | 0.00 | 0.00 | 43 | 1013.3 |
| 20260906193540 | 66 | 315 | 4.0 | 8.0 | 0.00 | 0.00 | 0.00 | 45 | 1013.3 |
| 20260906192520 | 66 | 270 | 7.0 | 12.0 | 0.00 | 0.00 | 0.00 | 44 | 1013.5 |
| 20260906191520 | 65 | 293 | 5.0 | 11.0 | 0.00 | 0.00 | 0.00 | 47 | 1013.7 |
| 20260906190519 | 64 | 293 | 7.0 | 13.0 | 0.00 | 0.00 | 0.00 | 49 | 1013.7 |
| 20260906185519 | 65 | 293 | 7.0 | 12.0 | 0.00 | 0.00 | 0.00 | 48 | 1013.7 |
| 20260906184519 | 63 | 293 | 5.0 | 10.0 | 0.00 | 0.00 | 0.00 | 52 | 1013.8 |
| 20260906183540 | 62 | 293 | 3.0 | 7.0 | 0.00 | 0.00 | 0.00 | 54 | 1013.8 |
| 20260906182539 | 61 | 315 | 2.0 | 6.0 | 0.00 | 0.00 | 0.00 | 57 | 1013.8 |
| 20260906181519 | 60 | 315 | 2.0 | 5.0 | 0.00 | 0.00 | 0.00 | 59 | 1013.7 |
| 20260906175520 | 58 | 0.0 | 2.0 | 0.00 | 0.00 | 0.00 | 62 | 1013.7 | |
| 20260906174519 | 58 | 248 | 3.0 | 5.0 | 0.00 | 0.00 | 0.00 | 64 | 1013.8 |
| 20260906173519 | 57 | 0.0 | 4.0 | 0.00 | 0.00 | 0.00 | 63 | 1013.8 | |
| 20260906172519 | 57 | 315 | 1.0 | 3.0 | 0.00 | 0.00 | 0.00 | 63 | 1013.8 |
| 20260906171519 | 56 | 270 | 3.0 | 6.0 | 0.00 | 0.00 | 0.00 | 64 | 1013.7 |
| 20260906170519 | 56 | 270 | 3.0 | 6.0 | 0.00 | 0.00 | 0.00 | 65 | 1013.8 |
| 20260906165539 | 56 | 293 | 5.0 | 9.0 | 0.00 | 0.00 | 0.00 | 65 | 1013.4 |
| 20260906164519 | 56 | 270 | 6.0 | 11.0 | 0.00 | 0.00 | 0.00 | 64 | 1013.8 |
| 20260906163519 | 57 | 270 | 5.0 | 9.0 | 0.00 | 0.00 | 0.00 | 65 | 1014.1 |
| 20260906162519 | 56 | 225 | 1.0 | 3.0 | 0.00 | 0.00 | 0.00 | 66 | 1014.4 |
| 20260906161519 | 56 | 0.0 | 1.0 | 0.00 | 0.00 | 0.00 | 66 | 1014.6 | |
| 20260906160519 | 56 | 225 | 1.0 | 3.0 | 0.00 | 0.00 | 0.00 | 66 | 1014.8 |
| 20260906155540 | 55 | 225 | 2.0 | 4.0 | 0.00 | 0.00 | 0.00 | 65 | 1014.8 |
| 20260906154519 | 56 | 225 | 2.0 | 3.0 | 0.00 | 0.00 | 0.00 | 65 | 1014.6 |
| 20260906153538 | 56 | 248 | 2.0 | 3.0 | 0.00 | 0.00 | 0.00 | 64 | 1014.7 |
| 20260906152539 | 56 | 293 | 3.0 | 7.0 | 0.00 | 0.00 | 0.00 | 63 | 1014.3 |
| 20260906151519 | 56 | 293 | 2.0 | 5.0 | 0.00 | 0.00 | 0.00 | 62 | 1013.8 |
| 20260906150519 | 56 | 338 | 2.0 | 3.0 | 0.00 | 0.00 | 0.00 | 61 | 1013.6 |
| 20260906145519 | 56 | 315 | 1.0 | 4.0 | 0.00 | 0.00 | 0.00 | 63 | 1013.5 |
| 20260906144519 | 55 | 0.0 | 0.0 | 0.00 | 0.00 | 0.00 | 62 | 1013.7 | |
| 20260906143519 | 55 | 315 | 1.0 | 3.0 | 0.00 | 0.00 | 0.00 | 62 | 1013.8 |
| 20260906142519 | 56 | 0 | 1.0 | 2.0 | 0.00 | 0.00 | 0.00 | 62 | 1013.7 |
| 20260906141519 | 55 | 338 | 2.0 | 3.0 | 0.00 | 0.00 | 0.00 | 62 | 1013.7 |
| 20260906140520 | 55 | 0 | 2.0 | 4.0 | 0.00 | 0.00 | 0.00 | 61 | 1013.7 |
| 20260906135519 | 55 | 0 | 2.0 | 3.0 | 0.00 | 0.00 | 0.00 | 61 | 1013.7 |
| 20260906134519 | 55 | 0 | 2.0 | 4.0 | 0.00 | 0.00 | 0.00 | 61 | 1013.6 |
| 20260906133518 | 55 | 0 | 2.0 | 3.0 | 0.00 | 0.00 | 0.00 | 61 | 1013.5 |
| 20260906132539 | 55 | 0 | 3.0 | 5.0 | 0.00 | 0.00 | 0.00 | 62 | 1013.5 |
| 20260906131519 | 55 | 0 | 2.0 | 3.0 | 0.00 | 0.00 | 0.00 | 62 | 1013.5 |
| 20260906130519 | 55 | 0 | 2.0 | 4.0 | 0.00 | 0.00 | 0.00 | 61 | 1013.6 |
| 20260906125519 | 55 | 0 | 2.0 | 4.0 | 0.00 | 0.00 | 0.00 | 61 | 1013.7 |
| 20260906124519 | 54 | 0 | 3.0 | 5.0 | 0.00 | 0.00 | 0.00 | 61 | 1013.5 |
| 20260906123519 | 54 | 0 | 3.0 | 4.0 | 0.00 | 0.00 | 0.00 | 62 | 1013.8 |
| 20260906122519 | 55 | 0 | 4.0 | 7.0 | 0.00 | 0.00 | 0.00 | 61 | 1013.7 |
| 20260906121518 | 55 | 0 | 4.0 | 6.0 | 0.00 | 0.00 | 0.00 | 60 | 1013.9 |
| 20260906120519 | 55 | 0 | 4.0 | 9.0 | 0.00 | 0.00 | 0.00 | 59 | 1014.2 |
| 20260906115538 | 55 | 0 | 4.0 | 8.0 | 0.00 | 0.00 | 0.00 | 59 | 1014.1 |
| 20260906114519 | 55 | 0 | 5.0 | 10.0 | 0.00 | 0.00 | 0.00 | 59 | 1014.0 |
| 20260906113539 | 55 | 23 | 3.0 | 6.0 | 0.00 | 0.00 | 0.00 | 60 | 1014.0 |
| 20260906112519 | 55 | 0 | 5.0 | 9.0 | 0.00 | 0.00 | 0.00 | 60 | 1014.1 |
| 20260906111518 | 56 | 0 | 4.0 | 8.0 | 0.00 | 0.00 | 0.00 | 59 | 1014.2 |
| 20260906110518 | 56 | 0 | 4.0 | 7.0 | 0.00 | 0.00 | 0.00 | 58 | 1014.3 |
| 20260906105521 | 56 | 0 | 4.0 | 9.0 | 0.00 | 0.00 | 0.00 | 58 | 1014.2 |
| 20260906104519 | 55 | 0 | 3.0 | 7.0 | 0.00 | 0.00 | 0.00 | 59 | 1014.3 |
| 20260906103518 | 55 | 0 | 3.0 | 5.0 | 0.00 | 0.00 | 0.00 | 59 | 1014.4 |
| 20260906102518 | 55 | 0 | 5.0 | 8.0 | 0.00 | 0.00 | 0.00 | 58 | 1014.2 |
| 20260906101519 | 55 | 0 | 7.0 | 11.0 | 0.00 | 0.00 | 0.00 | 59 | 1014.1 |
| 20260906100538 | 54 | 0 | 7.0 | 12.0 | 0.00 | 0.00 | 0.00 | 60 | 1014.0 |
| 20260906095520 | 54 | 0 | 4.0 | 8.0 | 0.00 | 0.00 | 0.00 | 61 | 1014.0 |
| 20260906094539 | 54 | 0 | 4.0 | 7.0 | 0.00 | 0.00 | 0.00 | 60 | 1014.0 |
| 20260906093518 | 54 | 0 | 5.0 | 9.0 | 0.00 | 0.00 | 0.00 | 61 | 1014.1 |
| 20260906092518 | 54 | 0 | 6.0 | 9.0 | 0.00 | 0.00 | 0.00 | 61 | 1014.2 |
| 20260906091520 | 53 | 0 | 4.0 | 7.0 | 0.00 | 0.00 | 0.00 | 62 | 1014.1 |
| 20260906090520 | 54 | 0 | 5.0 | 9.0 | 0.00 | 0.00 | 0.00 | 61 | 1014.1 |
| 20260906085538 | 54 | 23 | 4.0 | 9.0 | 0.00 | 0.00 | 0.00 | 61 | 1014.1 |
| 20260906084519 | 54 | 0 | 6.0 | 10.0 | 0.00 | 0.00 | 0.00 | 61 | 1014.2 |
| 20260906083520 | 54 | 0 | 5.0 | 9.0 | 0.00 | 0.00 | 0.00 | 61 | 1014.4 |
| 20260906082520 | 54 | 23 | 3.0 | 8.0 | 0.00 | 0.00 | 0.00 | 60 | 1014.3 |
| 20260906081520 | 54 | 0 | 6.0 | 10.0 | 0.00 | 0.00 | 0.00 | 60 | 1014.5 |
| 20260906080518 | 54 | 0 | 8.0 | 13.0 | 0.00 | 0.00 | 0.00 | 61 | 1014.4 |
| 20260906075521 | 54 | 0 | 7.0 | 11.0 | 0.00 | 0.00 | 0.00 | 61 | 1014.4 |
| 20260906074520 | 55 | 23 | 3.0 | 5.0 | 0.00 | 0.00 | 0.00 | 60 | 1014.6 |
| 20260906073520 | 55 | 23 | 4.0 | 12.0 | 0.00 | 0.00 | 0.00 | 59 | 1014.7 |
| 20260906072520 | 56 | 0 | 6.0 | 11.0 | 0.00 | 0.00 | 0.00 | 59 | 1014.6 |
| 20260906071520 | 56 | 0 | 4.0 | 8.0 | 0.00 | 0.00 | 0.00 | 59 | 1014.7 |
| 20260906070520 | 56 | 23 | 3.0 | 6.0 | 0.00 | 0.00 | 0.00 | 58 | 1014.8 |
| 20260906065540 | 56 | 23 | 2.0 | 4.0 | 0.00 | 0.00 | 0.00 | 59 | 1014.9 |
| 20260906064519 | 58 | 0.0 | 0.0 | 0.00 | 0.00 | 0.00 | 57 | 1014.7 | |
| 20260906063520 | 58 | 0.0 | 1.0 | 0.00 | 0.00 | 0.00 | 56 | 1014.7 | |
| 20260906062520 | 59 | 45 | 1.0 | 3.0 | 0.00 | 0.00 | 0.00 | 56 | 1014.6 |
| 20260906061540 | 59 | 45 | 1.0 | 3.0 | 0.00 | 0.00 | 0.00 | 55 | 1014.6 |
| 20260906060520 | 59 | 45 | 1.0 | 2.0 | 0.00 | 0.00 | 0.00 | 57 | 1014.5 |
| 20260906055540 | 59 | 23 | 1.0 | 3.0 | 0.00 | 0.00 | 0.00 | 58 | 1014.7 |
| 20260906054520 | 59 | 0.0 | 3.0 | 0.00 | 0.00 | 0.00 | 58 | 1014.6 | |
| 20260906053520 | 60 | 0.0 | 0.0 | 0.00 | 0.00 | 0.00 | 57 | 1014.8 | |
| 20260906052600 | 60 | 45 | 1.0 | 3.0 | 0.00 | 0.00 | 0.00 | 57 | 1014.8 |
| 20260906051520 | 60 | 0 | 4.0 | 7.0 | 0.00 | 0.00 | 0.00 | 55 | 1014.7 |
| 20260906050540 | 61 | 338 | 4.0 | 6.0 | 0.00 | 0.00 | 0.00 | 55 | 1014.7 |
| 20260906045519 | 60 | 338 | 4.0 | 7.0 | 0.00 | 0.00 | 0.00 | 56 | 1014.6 |
| 20260906044520 | 61 | 338 | 4.0 | 5.0 | 0.00 | 0.00 | 0.00 | 56 | 1014.7 |
| 20260906043540 | 62 | 293 | 2.0 | 8.0 | 0.00 | 0.00 | 0.00 | 54 | 1014.7 |
| 20260906042520 | 61 | 0.0 | 0.0 | 0.00 | 0.00 | 0.00 | 57 | 1014.7 | |
| 20260906041519 | 61 | 248 | 1.0 | 3.0 | 0.00 | 0.00 | 0.00 | 58 | 1014.8 |
| 20260906040519 | 61 | 248 | 2.0 | 4.0 | 0.00 | 0.00 | 0.00 | 59 | 1014.7 |
| 20260906035541 | 62 | 0.0 | 2.0 | 0.00 | 0.00 | 0.00 | 57 | 1014.7 | |
| 20260906034520 | 63 | 0.0 | 1.0 | 0.00 | 0.00 | 0.00 | 55 | 1014.8 | |
| 20260906033520 | 63 | 0.0 | 0.0 | 0.00 | 0.00 | 0.00 | 56 | 1014.6 | |
| 20260906032520 | 63 | 0.0 | 0.0 | 0.00 | 0.00 | 0.00 | 56 | 1014.4 | |
| 20260906031520 | 63 | 0.0 | 2.0 | 0.00 | 0.00 | 0.00 | 57 | 1014.4 | |
| 20260906030520 | 64 | 0.0 | 0.0 | 0.00 | 0.00 | 0.00 | 54 | 1014.2 | |
| 20260906025520 | 65 | 0.0 | 0.0 | 0.00 | 0.00 | 0.00 | 54 | 1014.3 | |
| 20260906024520 | 66 | 0.0 | 0.0 | 0.00 | 0.00 | 0.00 | 51 | 1014.1 | |
| 20260906023539 | 67 | 0.0 | 0.0 | 0.00 | 0.00 | 0.00 | 50 | 1014.2 | |
| 20260906022520 | 69 | 0.0 | 0.0 | 0.00 | 0.00 | 0.00 | 48 | 1014.1 | |
| 20260906021520 | 72 | 0.0 | 0.0 | 0.00 | 0.00 | 0.00 | 45 | 1014.3 | |
| 20260906020520 | 73 | 0.0 | 0.0 | 0.00 | 0.00 | 0.00 | 39 | 1014.3 | |
| 20260906015520 | 74 | 0.0 | 0.0 | 0.00 | 0.00 | 0.00 | 38 | 1014.3 | |
| 20260906014519 | 74 | 0.0 | 0.0 | 0.00 | 0.00 | 0.00 | 41 | 1014.4 | |
| 20260906013520 | 74 | 0.0 | 0.0 | 0.00 | 0.00 | 0.00 | 35 | 1014.4 | |
| 20260906012519 | 74 | 0.0 | 2.0 | 0.00 | 0.00 | 0.00 | 34 | 1014.4 | |
| 20260906011540 | 74 | 0.0 | 1.0 | 0.00 | 0.00 | 0.00 | 32 | 1014.4 | |
| 20260906010539 | 74 | 225 | 2.0 | 4.0 | 0.00 | 0.00 | 0.00 | 33 | 1014.3 |
| 20260906005519 | 74 | 225 | 1.0 | 4.0 | 0.00 | 0.00 | 0.00 | 32 | 1014.4 |
| 20260906004520 | 74 | 225 | 3.0 | 4.0 | 0.00 | 0.00 | 0.00 | 32 | 1014.4 |
| 20260906003520 | 74 | 158 | 1.0 | 2.0 | 0.00 | 0.00 | 0.00 | 30 | 1014.4 |
| 20260906002519 | 74 | 225 | 1.0 | 3.0 | 0.00 | 0.00 | 0.00 | 29 | 1014.5 |
| 20260906001519 | 74 | 225 | 1.0 | 3.0 | 0.00 | 0.00 | 0.00 | 29 | 1014.6 |
| 20260906000520 | 75 | 225 | 3.0 | 6.0 | 0.00 | 0.00 | 0.00 | 28 | 1014.5 |
| 20260905235519 | 74 | 203 | 2.0 | 5.0 | 0.00 | 0.00 | 0.00 | 30 | 1014.6 |
| 20260905234519 | 74 | 158 | 1.0 | 5.0 | 0.00 | 0.00 | 0.00 | 29 | 1014.4 |
| 20260905233519 | 74 | 90 | 2.0 | 6.0 | 0.00 | 0.00 | 0.00 | 31 | 1014.5 |
| 20260905232519 | 74 | 113 | 2.0 | 4.0 | 0.00 | 0.00 | 0.00 | 30 | 1014.6 |
| 20260905231519 | 74 | 113 | 1.0 | 4.0 | 0.00 | 0.00 | 0.00 | 28 | 1014.6 |
| 20260905230519 | 74 | 90 | 2.0 | 6.0 | 0.00 | 0.00 | 0.00 | 32 | 1014.6 |
| 20260905225519 | 74 | 158 | 1.0 | 4.0 | 0.00 | 0.00 | 0.00 | 31 | 1014.8 |
| 20260905224519 | 75 | 158 | 2.0 | 6.0 | 0.00 | 0.00 | 0.00 | 29 | 1014.9 |
| 20260905223519 | 76 | 90 | 2.0 | 4.0 | 0.00 | 0.00 | 0.00 | 29 | 1015.0 |
| 20260905222520 | 76 | 0.0 | 0.0 | 0.00 | 0.00 | 0.00 | 27 | 1015.1 | |
| 20260905221519 | 75 | 0.0 | 3.0 | 0.00 | 0.00 | 0.00 | 29 | 1014.9 | |
| 20260905220519 | 75 | 0.0 | 0.0 | 0.00 | 0.00 | 0.00 | 30 | 1014.9 | |
| 20260905215519 | 74 | 225 | 1.0 | 4.0 | 0.00 | 0.00 | 0.00 | 30 | 1015.1 |
| 20260905214539 | 72 | 0.0 | 3.0 | 0.00 | 0.00 | 0.00 | 30 | 1015.2 | |
| 20260905213519 | 73 | 315 | 2.0 | 5.0 | 0.00 | 0.00 | 0.00 | 32 | 1015.3 |
| 20260905212519 | 74 | 90 | 1.0 | 3.0 | 0.00 | 0.00 | 0.00 | 33 | 1015.3 |
| 20260905211519 | 73 | 23 | 1.0 | 4.0 | 0.00 | 0.00 | 0.00 | 32 | 1015.3 |
| 20260905210519 | 73 | 0 | 2.0 | 6.0 | 0.00 | 0.00 | 0.00 | 33 | 1015.4 |
| 20260905205519 | 73 | 0.0 | 2.0 | 0.00 | 0.00 | 0.00 | 34 | 1015.4 |